Aeroporto :
LOGIN :

Iscrizione | Disclaimer

   EN    FR    IT 

 










Sommario :    VFR   VFR Marginale   IFR   IFR Intensivo   IFR Molto Intensivo
Visibilità : 
Base nubi : 
>= 8 km
>= 3000ft
5 / 8 km
1000 / 3000 ft
1500m / 5 km
500 / 1000 ft
800 / 1500m
200 / 500 ft
< 800m
< 200 ft
Simboli :   Temporali  Nebbia  Neve Forte  Precipitazioni Forti  Vento > 20 kt
SIGMETs :   Varie  Temporali  Ghiacco  Turbolenza  Onda orograficha  Ceneri Vulcaniche







- Altitudine del aeroporto : 794 ft


LKCV - Čáslav Air Base

ULTIMO METAR :
  • 220000Z 12003KT 5000 BR NSC M09/M10 Q1018 NOSIG

METARs OBSOLETI :
  • 212300Z 12002KT 5000 BR NSC M09/M09 Q1018 NOSIG RMK WHT WHT
  • 212200Z 00000KT 5000 BR NSC M08/M09 Q1019 NOSIG RMK WHT WHT

TAF TAF LKCV
Valido dal 22 a 00 ore il 23 a 00 ore UTC


212300Z 2200/2300 VRB02KT 5000 BR SCT020
TEMPO 2200/2208 2000 BR BKN012
PROB30
TEMPO 2202/2208 1200 MIFG BR BKN008
BECMG 2209/2211 08004KT 8000 SCT030
Nessun NOTAM noto per questo aeroporto.



MetMap, La meteo Aeronautica in un colpo d'occhio ! - Copyright ORBIFLY Dicembre 2007 - Disclaimer

ORBIFLY MET'MAP TEAM :

Programmazione e sviluppo : Alexandra Zaïnal
Concezione e sviluppo : Baudouin d'Aumeries
Co-Programmazione e sviluppo : Marc-Olivier Méhu
Supporto tecnico e logistico : Manuel Goepfert
Aiuto per la traduzione : Arnaldo La Scala

Contatto : metmap@orbifly.com




FONTI E CREDITI :

   NOAA